Location: Unspecified
(50.1208°N, 0.0000°E)
Time: 00:21:34
(UTC+00:00)

Explorer 11/Cluster Stage 4 - All Passes

Search period start: 05 April 2026 00:00
Search period end: 15 April 2026 00:00
Orbit: 463 x 1175 km, 28.8° (Epoch: 29 March)

Date Brightness Start Highest point End Pass type
(mag) Time Alt. Az. Time Alt. Az. Time Alt. Az.
9 Apr - 16:19:56 10° SSW 16:20:35 10° S 16:21:15 10° S daylight
10 Apr - 15:54:02 10° SSW 15:55:49 11° S 15:57:33 10° S daylight
11 Apr - 13:43:13 10° S 13:44:30 10° S 13:45:46 10° SSE daylight
11 Apr - 15:28:37 10° SSW 15:31:01 12° S 15:33:20 10° SSE daylight
12 Apr - 13:17:51 10° S 13:19:39 11° SSE 13:21:26 10° SSE daylight
12 Apr - 15:03:21 10° SSW 15:06:11 12° S 15:08:56 10° SSE daylight
13 Apr - 12:52:41 10° S 12:54:46 11° SSE 12:56:51 10° SSE daylight
13 Apr - 14:38:12 10° SSW 14:41:20 13° S 14:44:23 10° SSE daylight
14 Apr - 12:27:41 10° S 12:29:53 11° SSE 12:32:06 10° SSE daylight
14 Apr - 14:13:08 10° SSW 14:16:27 13° S 14:19:44 10° SSE daylight
